This is the latest recevied weather packets stored in our database for station/object WA4OPQ-3. If no packets are shown the sender has not sent any weather packets the latest 10 day(s).
| Time | Temp. | Humidity | Pressure | Rain* | Wind** | Luminosity | Snow |
|---|---|---|---|---|---|---|---|
| 1777949995 | 15° C | 81% | 1010.2 hPa | 0 mm | - | 0 W/m² | - |
| 1777949389 | 15.56° C | 81% | 1010 hPa | 0 mm | - | 0 W/m² | - |
| 1777948784 | 15.56° C | 80% | 1010.3 hPa | 0 mm | - | 0 W/m² | - |
| 1777948179 | 15.56° C | 78% | 1010.2 hPa | 0 mm | - | 0 W/m² | - |
| 1777947574 | 16.11° C | 77% | 1010 hPa | 0 mm | - | 0 W/m² | - |
| 1777946969 | 16.11° C | 77% | 1010 hPa | 0 mm | - | 0 W/m² | - |
| 1777946364 | 16.67° C | 75% | 1009.8 hPa | 0 mm | - | 0 W/m² | - |
| 1777945759 | 17.22° C | 73% | 1009.7 hPa | 0 mm | - | 0 W/m² | - |
| 1777945154 | 17.22° C | 74% | 1009.6 hPa | 0 mm | - | 0 W/m² | - |
| 1777944551 | 17.78° C | 73% | 1009.9 hPa | 0 mm | - | 0 W/m² | - |
| 1777943945 | 18.33° C | 71% | 1009.9 hPa | 0 mm | - | 0 W/m² | - |
| 1777943339 | 18.89° C | 68% | 1009.8 hPa | 0 mm | - | 0 W/m² | - |
| 1777942735 | 19.44° C | 67% | 1009.7 hPa | 0 mm | - | 0 W/m² | - |
| 1777942130 | 20° C | 64% | 1009.9 hPa | 0 mm | - | 0 W/m² | - |
| 1777941525 | 20.56° C | 62% | 1009.5 hPa | 0 mm | - | 0 W/m² | - |
| 1777940921 | 20.56° C | 61% | 1009.7 hPa | 0 mm | - | 5 W/m² | - |
| 1777940315 | 21.67° C | 57% | 1009.3 hPa | 0 mm | - | 9 W/m² | - |
| 1777939709 | 21.67° C | 55% | 1009.6 hPa | 0 mm | - | 18 W/m² | - |
| 1777939105 | 22.22° C | 56% | 1009.5 hPa | 0 mm | - | 23 W/m² | - |
| 1777938499 | 22.78° C | 56% | 1009.7 hPa | 0 mm | - | 24 W/m² | - |
| 1777937895 | 23.33° C | 50% | 1009.7 hPa | 0 mm | - | 26 W/m² | - |
| 1777937289 | 23.89° C | 48% | 1009.5 hPa | 0 mm | - | 30 W/m² | - |
| 1777936684 | 24.44° C | 48% | 1010 hPa | 0 mm | - | 44 W/m² | - |
| 1777936079 | 24.44° C | 48% | 1009.7 hPa | 0 mm | - | 60 W/m² | - |
| 1777935474 | 24.44° C | 48% | 1009.6 hPa | 0 mm | - | 66 W/m² | - |
* Rain latest hour (hover to see other rain measurements)
** Current wind speed in m/s (hover to see current wind gust speed)